Theta_e
306 306 308 307 308 294 301 304 297 300 306 303 299 303 304 301 299 294 310 310 313 319 322 324 327 327 329 332 333 334 333 335 336 335 337 339 341 342 342 345 338 336 338 339 341 341 342 341 342 344 347 350 352 352 354 354 356 358 358 357 357 355 356
306 308 308 307 308 308 304 300 300 307 308 306 303 293 295 294 292 295 308 306 307 309 303 320 322 323 326 329 331 333 333 334 333 334 336 338 339 341 342 344 347 341 338 339 342 342 341 341 342 344 348 350 353 353 355 354 356 355 356 357 356 355 355
307 309 308 304 307 309 302 301 307 299 295 293 299 298 289 289 290 291 301 309 308 310 308 317 318 319 321 325 329 330 331 332 333 334 336 338 339 340 341 344 345 347 338 339 341 340 341 341 343 346 348 351 353 354 356 355 355 356 356 357 357 356 356
306 306 302 296 298 305 307 306 302 305 300 297 295 295 297 296 289 293 298 304 299 316 316 318 319 320 322 326 327 329 332 333 335 336 336 336 337 339 341 344 345 347 343 339 340 340 340 340 342 347 348 351 352 353 355 354 355 356 356 355 356 355 355
306 298 300 297 298 296 297 298 296 299 301 302 301 299 295 293 293 292 294 296 302 313 325 325 322 322 323 326 328 330 332 333 335 336 336 336 336 337 340 344 345 345 345 339 341 340 341 342 345 347 348 349 351 352 353 355 353 354 354 355 355 355 355
298 301 306 306 305 305 300 296 296 297 296 296 291 290 300 297 293 287 292 298 309 322 328 326 325 327 329 328 329 329 331 332 333 335 335 336 336 337 339 344 346 346 345 346 343 344 343 342 346 344 346 348 349 349 352 353 354 354 353 353 355 354 355
298 303 307 309 309 308 306 302 299 302 299 299 294 286 292 297 296 299 297 300 305 322 326 326 327 328 329 330 332 332 333 336 336 338 337 337 338 339 341 344 344 344 345 344 343 346 344 344 345 346 350 348 348 349 350 352 353 352 353 351 354 354 354
303 306 309 309 309 308 304 304 304 301 298 299 298 295 299 296 298 292 293 297 304 321 326 325 327 329 329 332 333 333 334 336 339 339 337 340 340 341 342 343 343 342 344 346 343 342 345 346 348 349 350 352 350 348 350 352 350 351 352 350 352 352 352
296 299 302 304 308 307 303 301 303 303 301 302 302 301 305 297 302 303 299 295 301 319 327 326 327 327 328 331 333 334 333 336 337 336 337 339 340 339 339 341 341 340 341 341 339 340 345 350 352 352 352 354 354 351 353 351 350 350 350 350 351 351 351
287 287 288 290 295 299 302 305 305 305 304 304 300 297 301 290 303 307 304 304 311 319 322 322 322 326 325 328 330 333 334 334 333 333 335 339 342 340 339 339 340 339 340 341 343 347 349 351 351 351 351 352 352 353 354 357 355 355 351 355 350 350 349
293 297 298 303 306 302 298 302 303 304 306 306 305 303 299 294 302 304 308 311 311 314 318 319 320 322 324 326 327 329 330 332 335 334 334 335 337 337 338 338 341 341 341 344 348 348 348 348 349 350 350 350 349 350 354 355 355 353 354 357 355 349 349
300 304 305 305 306 301 302 301 302 304 304 304 303 299 299 306 299 294 307 313 311 312 316 317 319 320 323 327 328 328 330 330 332 335 334 338 339 336 337 337 338 339 340 342 346 347 346 346 347 350 352 350 348 349 351 352 352 352 355 355 357 356 353
301 302 304 304 303 303 303 303 303 302 303 303 301 303 307 307 301 297 308 310 309 313 316 317 321 324 323 326 329 332 332 332 331 330 331 334 336 335 334 335 334 336 338 339 341 347 350 349 347 348 348 348 348 348 348 350 350 352 354 355 351 353 355
299 300 301 303 302 303 303 303 303 303 304 305 305 308 310 309 307 309 312 314 313 315 318 320 323 326 327 328 330 330 331 331 330 328 329 330 333 334 334 333 334 335 335 338 340 342 341 341 344 346 347 349 350 350 348 349 350 352 353 353 352 350 349
297 300 302 302 302 303 301 302 303 305 305 308 309 309 309 311 309 311 312 311 310 318 322 322 326 327 328 327 324 326 329 330 328 327 328 329 329 331 332 334 335 334 335 336 337 338 339 340 340 341 342 345 347 348 346 347 348 350 351 350 351 351 350
295 300 300 301 302 302 302 302 304 304 303 304 307 306 309 308 306 308 309 306 307 315 322 323 323 324 323 321 322 325 327 329 327 327 329 328 329 330 331 332 335 334 334 334 335 337 339 340 341 343 344 345 345 344 344 345 347 349 349 347 346 349 352
294 299 300 299 300 301 297 300 304 305 306 308 310 310 312 312 312 307 304 306 314 317 321 320 321 322 323 323 325 326 326 328 328 328 330 331 330 330 330 331 332 333 333 334 335 337 337 337 338 340 340 340 340 344 345 347 347 347 348 347 346 348 350
293 298 299 300 295 288 293 307 312 308 307 306 307 307 310 312 314 310 313 314 318 318 319 320 319 319 319 321 323 327 328 327 327 329 329 329 330 331 332 333 333 334 334 334 335 336 336 337 340 340 340 339 340 342 342 344 346 346 347 349 349 348 348
293 297 299 293 287 292 306 308 314 316 311 313 310 310 311 312 313 314 314 316 318 318 321 322 321 320 322 323 322 323 327 330 329 329 328 328 329 330 330 331 332 333 335 335 336 337 338 339 340 340 340 341 340 339 340 339 341 341 341 342 342 343 343
299 295 294 285 290 303 308 311 309 311 309 309 311 307 309 311 312 313 313 316 319 320 319 319 323 324 323 322 321 323 326 328 327 327 327 329 330 330 331 330 330 331 332 334 336 337 340 339 340 341 339 339 337 336 338 337 338 339 339 340 341 342 341
291 293 293 295 304 302 305 307 307 307 303 304 303 299 303 310 312 314 314 317 318 319 319 320 323 323 323 317 316 322 325 327 327 325 322 319 319 320 323 329 333 334 335 335 336 337 336 337 336 336 337 336 334 334 334 335 335 336 336 336 337 340 342
297 293 290 292 291 291 298 307 311 313 311 310 312 308 303 310 313 318 316 316 317 318 320 321 322 323 318 311 313 318 321 326 324 324 322 321 318 317 318 319 319 322 325 327 330 333 334 335 336 336 335 334 333 332 332 333 333 333 333 334 335 336 338
296 295 290 288 287 293 303 306 310 311 312 310 309 304 298 307 314 317 317 315 317 317 316 317 319 315 310 309 312 318 317 318 317 316 316 317 317 317 318 318 318 320 323 327 328 329 326 324 325 329 334 333 331 330 331 331 331 330 331 332 333 334 335
295 295 290 289 297 297 306 310 310 310 311 310 304 292 295 308 316 318 318 318 317 317 317 318 316 312 308 309 313 319 319 317 315 315 316 317 316 317 318 318 318 319 321 320 321 323 324 324 328 327 325 326 328 327 328 329 328 329 331 332 333 334 335
295 296 294 297 300 307 310 309 310 312 314 309 294 289 300 313 316 319 319 319 320 319 318 318 312 314 316 316 318 320 320 320 316 316 317 317 317 316 316 317 321 317 317 318 318 319 321 325 326 325 324 323 323 325 325 325 326 327 329 331 331 332 333
293 294 294 294 297 304 308 310 312 312 309 295 293 303 312 316 318 319 320 320 320 320 318 317 317 318 319 321 320 318 319 318 317 318 317 315 315 317 320 322 320 317 317 316 317 318 320 322 324 324 324 323 323 323 323 322 323 325 326 328 329 329 330
298 297 293 289 285 302 312 313 309 310 302 301 308 313 315 319 318 319 319 320 321 320 317 319 318 319 319 319 317 318 317 317 317 317 316 316 316 316 316 317 320 319 317 316 316 316 318 319 321 323 324 323 323 323 322 323 327 328 326 325 326 328 328
292 292 291 289 300 306 313 309 301 308 309 313 315 313 312 318 319 319 318 319 321 321 319 318 318 319 318 317 316 316 316 316 316 315 314 314 315 317 319 319 318 319 317 317 318 318 319 319 320 322 323 322 322 321 320 323 324 327 330 331 327 327 329
298 296 298 305 310 309 311 313 312 312 314 316 316 315 314 315 317 321 318 319 321 321 321 320 319 318 318 317 316 314 314 314 314 313 311 311 313 315 315 316 319 318 316 316 318 318 319 321 322 321 322 321 321 319 320 324 324 324 326 329 328 326 321
307 308 309 311 309 309 310 313 314 313 313 315 316 315 314 316 318 320 319 321 322 322 322 320 319 318 318 317 315 314 314 314 314 315 313 311 313 314 315 315 317 317 317 317 317 319 320 320 321 322 321 320 319 320 322 324 324 325 326 328 326 325 325
298 293 309 308 308 311 313 313 315 315 315 315 316 316 316 317 319 321 323 323 324 324 322 321 320 319 320 320 320 316 313 313 312 312 311 311 311 313 314 316 318 317 316 316 316 318 317 319 319 320 320 320 319 320 321 323 324 325 326 326 328 325 323
301 303 309 309 311 313 314 313 312 312 313 315 316 318 319 320 321 321 321 324 323 323 320 321 321 320 321 319 318 317 313 313 313 312 311 311 314 316 317 318 320 318 316 314 314 315 315 314 317 318 318 319 320 318 319 321 321 323 326 326 322 320 322
306 309 311 311 312 312 312 313 312 314 315 315 316 317 316 318 319 319 320 322 322 323 321 322 320 319 320 320 318 318 315 315 315 314 314 315 316 317 317 319 320 316 316 315 314 315 314 314 315 315 315 316 319 320 321 321 322 322 324 327 324 318 319
300 300 305 310 302 302 308 312 315 314 316 318 316 317 315 317 318 319 319 320 323 323 323 322 320 319 319 320 319 319 319 317 316 316 316 317 317 317 319 319 319 319 319 315 315 314 311 312 313 313 314 314 316 319 319 319 320 321 322 324 322 319 318
299 309 311 312 311 311 312 312 315 318 317 317 317 315 316 316 317 318 319 319 320 321 323 325 322 320 319 318 320 319 319 319 318 317 317 317 317 317 319 318 319 319 319 320 318 315 313 313 312 313 313 314 314 316 318 319 319 317 316 320 321 320 319
310 313 313 314 312 309 313 315 316 315 318 318 316 317 317 317 317 317 317 318 318 319 321 322 323 322 321 320 320 319 321 321 320 319 319 319 319 320 320 320 318 317 317 318 317 316 315 315 314 313 312 312 314 315 316 317 317 316 316 315 314 318 321
309 315 315 317 316 315 316 317 317 315 316 318 317 315 315 315 314 317 318 317 318 318 320 321 323 324 322 321 321 320 319 320 322 322 322 322 323 319 319 318 318 317 318 317 316 315 315 314 314 315 313 314 314 315 314 316 316 315 315 316 314 316 318
Wind_Speed
9 10 5 5 3 3 3 7 7 6 3 3 4 5 4 5 1 2 5 3 5 1 5 2 9 8 10 12 13 14 15 15 16 15 14 14 12 9 7 5 7 12 12 12 12 12 10 11 11 13 13 13 13 14 13 13 11 11 10 10 9 9 8
4 3 4 5 5 5 5 1 3 7 3 3 0 1 4 3 3 2 7 7 4 3 1 3 8 9 10 12 13 14 15 15 16 16 15 15 14 12 10 7 4 6 13 13 12 14 12 12 11 12 16 13 13 14 14 14 12 12 11 10 10 9 9
2 8 4 4 5 8 5 0 9 0 3 4 1 1 3 2 3 2 4 8 5 1 4 4 5 10 11 11 12 12 14 15 15 15 16 16 15 13 11 10 8 4 10 13 12 14 13 12 10 12 16 13 14 13 14 15 14 13 13 10 10 9 9
11 7 6 0 3 4 4 4 6 3 2 5 3 5 1 1 3 2 5 7 3 6 6 4 5 4 9 10 11 12 13 13 11 11 13 14 14 13 12 9 6 4 5 13 12 13 13 12 9 12 15 14 15 14 14 13 11 11 11 12 10 10 10
11 4 6 7 6 5 2 1 5 4 3 3 6 3 4 3 2 1 5 0 1 2 5 7 2 4 6 7 9 7 10 11 11 11 11 11 13 12 10 8 6 3 3 9 11 12 12 11 8 11 13 15 14 12 13 13 13 11 12 11 11 9 10
6 8 12 11 11 11 7 6 6 5 5 1 3 4 3 4 4 1 1 4 1 1 6 5 6 6 6 5 3 5 6 6 7 10 10 9 10 10 10 7 6 2 4 2 4 10 10 11 9 11 12 13 13 12 12 12 12 11 11 11 11 9 10
7 9 15 14 11 11 11 6 7 7 3 4 3 1 4 4 5 4 4 7 0 1 4 5 5 5 6 7 7 4 1 2 3 2 3 8 7 6 6 6 7 8 6 7 10 7 9 10 10 11 10 12 13 12 13 10 13 12 12 10 11 10 9
4 7 10 15 10 9 9 9 10 6 6 2 2 4 2 2 1 5 1 3 1 2 4 3 3 4 5 5 7 5 5 6 3 1 9 10 4 9 8 8 9 10 5 2 4 6 5 6 8 10 9 9 11 11 11 11 13 13 12 9 11 11 9
6 8 9 11 11 9 2 7 14 11 6 10 10 9 2 2 8 4 6 3 1 2 4 5 5 5 5 9 9 7 7 7 5 9 8 7 7 8 6 5 9 12 11 9 8 9 8 7 8 8 9 9 9 10 9 11 11 12 11 7 11 11 10
3 3 5 5 7 9 10 10 11 8 10 14 11 0 3 6 6 8 4 2 0 1 3 6 3 3 4 5 5 5 7 7 6 5 6 7 5 6 7 9 7 3 3 6 6 6 5 7 8 8 8 9 7 7 7 7 9 8 8 6 11 10 10
3 7 5 8 9 6 6 13 12 10 12 13 8 4 4 4 3 7 3 9 4 2 3 4 5 4 3 2 2 4 6 7 4 0 1 6 7 6 7 9 8 7 4 9 5 8 7 9 8 7 6 7 7 6 6 5 5 6 4 3 6 9 8
8 6 8 9 9 8 9 12 12 11 10 11 11 8 7 3 6 7 0 7 8 4 1 4 6 2 1 2 3 6 7 7 5 5 2 5 7 6 5 5 4 3 3 3 5 8 8 8 8 7 6 6 4 2 5 5 4 4 4 3 4 2 6
8 8 11 7 7 7 10 12 11 12 7 7 8 10 11 13 11 3 5 3 9 6 5 5 7 2 1 8 8 6 6 5 7 10 9 3 5 7 6 4 6 5 3 2 8 2 3 8 9 9 9 8 8 6 2 3 5 5 4 4 4 5 3
9 11 11 8 8 5 6 9 10 12 14 16 12 10 12 13 8 8 6 9 15 10 7 3 7 6 8 7 4 4 6 7 8 7 8 9 6 4 3 5 4 4 3 6 5 7 8 6 5 6 5 5 6 7 7 5 5 5 6 5 4 3 5
7 9 10 9 2 5 5 5 10 13 12 16 14 15 14 10 13 15 13 8 6 8 8 7 8 11 8 8 11 7 7 6 8 7 6 7 8 7 7 3 2 2 6 6 7 9 9 9 10 10 10 8 7 6 6 6 7 6 7 7 6 5 6
6 7 10 9 6 5 4 8 11 12 11 9 11 8 8 10 8 8 10 9 5 4 7 9 9 8 10 10 9 10 3 4 6 6 4 3 4 6 7 7 7 7 6 6 7 7 9 8 8 8 6 5 7 7 7 7 6 6 5 4 4 5 6
3 8 8 7 4 2 5 4 4 7 8 7 11 9 10 8 4 10 7 1 1 2 3 9 9 8 7 6 7 8 9 7 4 4 8 10 9 9 9 8 7 8 6 6 7 8 10 10 10 10 9 9 9 6 1 3 3 2 2 2 2 2 4
3 7 7 6 3 3 2 5 2 7 4 7 11 9 9 10 8 3 2 2 1 5 9 10 10 11 8 7 9 9 8 5 7 8 9 9 9 8 8 7 7 9 9 8 7 9 9 8 8 10 10 9 8 9 8 8 6 4 3 3 3 4 5
2 5 6 4 2 2 2 5 2 3 9 14 11 9 11 9 9 7 7 7 8 7 7 9 9 8 10 10 11 12 13 10 7 8 9 10 9 9 9 11 11 10 8 6 5 6 6 5 5 7 7 8 7 9 8 9 9 8 8 7 6 6 5
0 1 4 2 1 5 4 5 11 9 7 5 9 9 12 10 9 8 6 9 8 6 5 3 3 7 7 9 11 11 11 12 10 11 11 10 9 9 8 8 8 8 7 6 6 7 5 6 6 7 8 7 9 9 8 9 7 8 7 5 3 2 5
1 2 2 2 2 3 9 7 8 10 5 6 2 6 6 9 10 9 9 10 10 8 5 3 3 3 6 9 10 12 9 9 12 12 12 11 10 10 11 10 9 7 6 6 7 5 5 7 8 6 6 7 8 8 9 8 7 7 7 6 6 3 1
1 1 2 2 3 1 4 3 8 8 9 9 5 7 2 8 10 10 9 8 8 8 6 5 1 2 3 7 7 11 13 7 10 11 11 11 10 10 10 12 15 16 14 12 9 7 6 7 7 7 7 7 8 9 9 9 9 9 9 8 6 5 4
1 1 2 2 2 3 4 7 9 9 8 9 6 4 4 5 7 7 6 7 5 6 5 4 4 6 5 4 3 7 9 8 10 10 9 10 11 11 11 11 11 11 9 8 11 13 13 13 12 8 6 7 9 10 10 10 10 10 9 7 6 5 4
3 2 1 2 2 1 3 6 5 6 5 7 3 1 2 4 6 6 5 6 3 3 3 3 3 8 8 7 4 3 0 4 10 10 8 7 8 9 9 10 10 9 9 12 12 11 10 9 9 11 11 11 11 11 11 10 11 10 8 7 6 6 5
4 5 3 2 2 1 3 6 7 8 6 1 4 3 5 3 4 5 3 2 3 2 3 1 3 2 2 7 6 6 4 4 6 8 8 8 7 8 9 9 10 10 11 11 12 12 9 9 10 11 11 12 11 10 10 9 9 7 6 6 7 7 7
2 2 5 1 2 1 5 3 7 7 3 4 3 3 3 3 3 3 3 3 3 4 4 3 5 7 9 9 7 5 3 5 6 6 6 7 9 10 9 10 9 9 10 10 10 11 10 10 10 10 10 11 10 10 8 8 7 5 5 5 4 6 7
0 2 3 2 1 3 7 4 5 10 5 2 2 3 5 5 4 2 3 2 5 4 6 4 7 8 7 8 7 6 6 6 7 6 7 7 7 7 6 6 7 8 8 8 9 8 7 7 7 7 10 11 10 9 10 10 6 3 4 6 6 5 5
1 2 2 1 2 2 5 6 4 1 4 2 3 4 4 3 2 1 2 3 3 5 6 6 5 4 5 6 7 6 5 7 6 6 6 6 6 6 6 6 6 7 7 6 6 6 5 5 6 7 7 8 7 7 7 5 7 7 4 2 4 5 5
2 2 2 2 4 5 4 4 5 5 5 6 5 5 5 3 3 1 2 2 3 5 4 5 6 6 4 5 6 7 6 6 7 7 5 6 6 6 6 6 4 5 7 6 5 5 4 5 6 6 6 6 6 7 4 3 5 5 6 6 5 3 4
4 4 5 6 6 6 5 5 6 6 6 7 7 6 5 4 3 2 3 3 3 3 4 5 4 4 6 6 6 7 6 5 5 4 4 4 4 4 4 4 4 3 4 4 4 5 5 5 5 5 6 7 6 3 3 3 3 3 5 4 6 6 4
4 2 1 6 6 8 7 5 5 6 6 5 4 5 4 4 4 4 4 3 3 3 3 4 4 4 3 4 4 7 6 7 5 5 4 4 4 4 3 3 4 4 3 4 4 4 4 4 4 4 4 3 3 2 3 2 4 4 3 4 5 4 5
2 3 3 6 7 6 4 4 4 5 6 5 4 4 4 5 4 3 4 4 5 5 4 3 5 4 3 4 4 5 7 7 7 6 4 4 3 2 3 3 3 3 4 4 3 3 3 3 3 4 3 3 3 3 2 3 3 3 3 4 5 5 6
3 4 2 4 9 6 5 6 5 4 4 4 4 4 5 5 5 4 4 3 4 4 4 4 4 4 4 3 4 4 6 5 6 6 6 5 5 4 4 2 2 3 3 3 2 2 2 2 3 3 3 3 3 4 4 5 4 4 3 2 3 4 6
3 2 2 2 3 2 2 3 3 4 4 4 4 4 5 4 4 4 4 4 4 4 3 5 5 5 4 4 4 4 4 6 6 6 6 5 6 5 4 3 3 4 4 4 3 3 1 1 1 2 3 2 3 2 3 4 5 4 3 2 4 5 4
3 2 4 5 6 5 4 4 2 1 5 4 4 4 3 4 4 4 4 3 2 2 1 0 3 5 5 4 3 3 1 3 6 6 6 5 5 4 4 4 5 5 5 4 4 3 2 2 1 1 1 1 1 2 2 2 3 3 4 3 2 2 4
4 5 4 5 3 4 3 4 4 5 3 5 5 4 4 4 4 3 4 3 1 3 4 2 1 3 4 6 5 4 1 0 3 4 4 4 4 3 4 4 5 5 4 4 4 4 3 3 3 2 1 0 0 1 2 3 3 4 4 5 5 5 3
4 4 4 3 2 6 5 5 5 5 4 5 4 5 4 4 3 3 3 2 4 3 5 2 2 0 2 3 4 5 4 2 1 1 1 2 4 3 4 5 5 5 4 5 4 4 3 3 3 3 2 2 2 3 3 3 3 4 4 4 4 4 4
Wind_Direction
174 202 209 223 192 230 286 157 161 206 218 254 300 296 293 306 171 244 149 101 11 342 26 77 148 165 162 162 164 171 179 182 180 192 197 204 210 213 214 207 205 186 180 172 171 176 172 172 172 157 160 161 156 158 160 163 166 171 172 173 170 169 166
156 157 221 275 232 220 254 182 191 201 234 305 265 285 337 319 249 200 128 140 176 142 232 266 160 169 157 169 168 176 178 180 187 192 195 199 202 204 211 213 222 202 179 176 166 174 174 172 168 148 163 160 158 161 160 164 165 171 175 172 173 171 167
117 181 216 225 256 255 272 115 334 344 116 282 232 57 262 323 308 301 62 128 141 150 178 173 200 162 163 162 172 173 176 182 187 190 192 194 194 197 201 205 207 220 183 174 166 170 167 168 159 148 159 157 159 162 162 166 167 171 172 176 172 174 170
344 312 87 64 327 325 304 22 297 278 193 178 196 183 225 194 258 48 328 11 290 10 340 251 182 172 154 163 170 179 178 182 180 182 188 190 191 194 192 190 191 189 190 171 166 164 164 166 158 151 154 154 159 161 161 165 167 168 170 175 174 177 176
337 10 2 347 345 308 313 198 274 292 264 172 183 165 190 184 212 176 151 27 269 324 314 340 202 185 174 165 171 163 175 181 183 184 186 188 190 192 189 180 173 185 162 179 160 163 162 163 153 153 151 158 158 160 163 164 168 172 174 177 173 176 179
315 350 327 330 319 320 276 182 226 220 249 356 192 280 184 244 242 210 163 135 158 8 354 340 357 12 34 43 101 167 174 173 175 182 186 184 186 188 188 165 152 97 30 354 152 156 157 161 151 156 152 152 156 160 166 164 169 175 176 180 169 174 177
308 335 316 304 306 297 306 309 254 234 246 239 126 189 262 215 234 246 156 113 201 348 337 339 338 27 43 34 19 18 22 125 41 29 152 179 178 170 155 141 105 70 29 360 11 325 159 154 152 152 148 154 161 161 164 165 169 174 180 180 168 172 173
315 331 324 315 304 343 327 329 290 226 236 256 219 194 205 228 240 236 216 86 230 10 310 309 339 3 14 56 26 42 43 21 33 358 35 16 34 45 50 100 109 94 82 34 58 335 286 134 141 147 141 142 157 163 163 166 172 174 179 177 169 172 173
340 342 345 335 354 10 9 319 309 307 310 298 292 282 47 47 7 97 93 127 269 305 324 316 342 28 30 37 27 32 35 12 38 62 78 95 114 156 170 124 132 144 163 177 180 186 216 151 137 137 137 137 142 157 153 162 171 176 182 170 172 174 176
7 338 309 312 326 333 312 310 319 10 2 5 328 44 350 70 338 54 73 89 222 85 332 329 343 53 35 37 19 38 51 45 72 97 128 141 116 82 78 47 45 83 166 171 204 213 177 140 143 146 142 139 138 138 137 137 147 160 177 155 173 173 178
207 208 226 246 255 277 302 317 320 11 19 7 355 356 62 101 79 58 60 129 107 41 336 329 320 356 1 56 20 29 37 47 48 60 34 49 60 82 106 134 151 149 231 176 188 177 162 145 147 138 132 137 140 138 126 119 120 130 118 102 146 171 171
229 197 211 241 266 292 312 315 336 344 11 357 359 20 12 13 90 47 323 136 124 146 194 287 293 289 329 25 16 32 36 21 11 354 27 79 82 97 78 80 69 21 0 309 175 163 158 153 140 117 102 83 80 95 121 115 104 89 80 74 57 91 146
304 247 215 238 283 320 319 308 319 350 10 339 10 26 37 45 55 22 328 26 86 117 174 245 275 299 27 54 20 36 64 42 15 17 12 29 100 106 119 105 62 29 359 337 333 334 115 126 118 121 125 126 123 105 43 40 54 54 48 64 73 47 32
305 309 310 243 203 255 291 310 339 349 3 9 19 40 40 66 69 97 98 42 60 45 5 308 285 324 15 21 2 23 47 58 56 19 16 0 13 64 150 142 118 101 37 25 350 18 6 24 81 92 103 113 125 125 123 99 81 59 53 39 62 71 63
286 298 293 321 243 163 276 283 7 3 12 44 33 31 23 35 50 59 75 53 33 61 61 31 358 358 356 7 11 15 68 72 77 67 22 24 12 10 6 44 146 95 51 26 54 51 41 32 22 15 3 8 27 56 60 64 65 63 60 45 34 45 53
323 301 284 258 274 230 107 29 29 2 17 41 45 41 18 36 46 63 70 45 351 342 35 96 74 44 24 354 342 331 34 62 72 82 100 86 59 45 30 11 16 76 74 34 42 75 95 71 52 39 22 20 20 12 25 20 25 33 47 54 38 38 52
273 301 310 312 263 106 88 24 359 20 29 67 76 73 54 46 55 52 48 105 261 317 34 86 76 66 63 35 332 319 340 43 53 40 59 79 70 64 60 44 47 74 82 64 32 43 53 52 56 54 50 49 45 51 63 178 165 162 157 142 135 113 92
289 307 311 321 35 75 134 230 104 90 53 28 69 45 47 46 49 125 159 180 161 58 58 73 82 73 46 30 16 358 338 23 59 52 58 76 79 70 72 67 50 61 56 51 44 51 59 52 62 64 63 57 45 45 33 20 20 17 38 68 83 102 125
296 320 323 6 31 125 273 0 328 45 83 89 74 65 43 40 39 54 63 71 88 85 82 70 72 69 58 38 35 22 13 21 24 64 71 48 45 56 52 53 47 51 77 94 81 68 74 68 66 81 73 78 76 68 65 55 41 41 32 35 47 62 72
59 0 14 13 309 304 19 339 21 13 38 81 89 52 31 19 35 43 48 53 67 70 50 19 37 82 63 32 31 26 38 51 26 42 46 48 38 35 41 60 57 55 48 57 71 75 77 86 84 81 85 86 83 81 77 82 84 88 90 73 50 39 77
211 158 153 180 156 338 2 13 2 347 14 343 49 94 19 357 8 31 44 55 76 72 76 354 4 13 55 36 24 7 21 52 68 66 67 65 45 38 30 34 42 35 38 49 53 66 75 77 76 73 81 85 84 79 74 69 72 70 78 73 53 22 62
105 328 38 37 93 158 292 300 307 320 1 355 49 105 37 346 22 54 58 56 80 90 94 102 88 3 71 46 15 353 354 16 70 69 69 66 67 58 47 47 50 43 27 18 22 32 63 81 93 97 90 90 84 76 68 62 58 57 57 53 57 39 26
320 253 173 159 142 236 229 273 305 336 4 354 343 75 24 323 27 57 59 64 74 104 119 131 131 98 79 63 42 354 351 12 49 50 55 68 64 60 60 57 63 64 59 50 57 50 41 39 35 53 79 83 80 76 70 63 57 54 49 44 31 41 32
230 194 70 77 31 128 265 274 298 354 355 351 16 77 42 328 33 54 54 61 75 98 106 108 79 122 135 157 170 153 39 82 106 106 89 79 82 72 65 66 64 60 52 47 43 46 44 51 59 52 48 54 62 69 65 59 52 41 35 31 24 20 19
2 6 95 77 99 20 321 316 349 345 327 20 54 95 253 360 27 41 52 70 81 102 132 174 116 317 101 133 134 147 169 149 95 100 107 89 72 73 69 64 66 65 58 54 48 37 33 40 45 47 50 52 48 53 66 64 58 56 36 24 28 29 27
53 84 85 126 124 239 281 295 16 340 17 51 78 206 206 120 78 58 42 70 66 75 74 91 91 107 114 121 132 129 95 71 75 71 73 92 99 96 82 73 67 68 67 60 56 49 38 32 38 47 51 54 50 41 43 63 72 54 43 32 29 38 35
37 71 84 84 22 348 359 2 35 10 67 158 149 123 61 80 83 68 31 39 94 96 100 102 125 130 129 129 127 121 117 108 99 88 78 76 74 79 85 79 70 73 74 69 64 59 43 38 36 47 60 60 52 42 38 21 15 35 62 46 28 34 50
102 48 71 143 124 71 25 60 99 103 98 157 84 88 95 86 93 71 69 24 75 105 125 129 135 138 130 126 133 123 110 106 105 97 93 88 82 75 65 72 76 74 73 66 81 82 74 57 47 44 57 69 65 60 43 17 20 13 6 48 56 33 9
79 133 158 177 135 96 52 56 77 82 72 70 75 90 94 96 97 121 84 61 67 108 109 128 135 146 145 140 145 128 130 127 121 118 112 107 106 103 97 90 84 89 101 100 88 78 71 73 59 61 57 65 62 58 30 22 28 22 19 28 28 27 35
88 66 107 135 117 114 94 69 60 69 68 69 66 62 76 73 87 80 104 105 101 97 127 129 134 144 155 155 148 128 137 126 117 119 122 117 116 113 115 108 103 97 77 73 77 71 50 60 88 89 85 80 66 20 1 17 24 24 30 39 45 33 20
80 87 40 96 88 80 75 71 70 68 66 70 80 77 78 88 67 63 74 100 111 99 70 107 130 138 125 99 108 136 137 129 134 146 150 162 160 145 135 148 129 118 112 103 99 90 77 36 54 56 61 64 84 80 58 3 355 353 34 67 63 35 17
109 140 43 85 86 95 107 109 105 87 69 57 59 101 105 111 102 87 89 103 105 105 103 118 137 140 125 128 121 120 137 147 157 154 163 175 123 126 161 179 150 132 126 117 98 87 74 48 57 69 57 46 52 55 3 360 7 53 30 14 56 58 35
87 83 51 86 77 61 77 85 88 91 85 77 47 52 80 78 100 86 56 60 114 125 131 137 127 127 141 141 144 138 146 157 152 156 169 163 159 168 198 191 144 127 121 106 106 80 76 47 54 58 65 55 23 8 357 352 348 0 9 35 82 61 54
161 169 177 110 122 134 105 80 62 92 89 87 82 50 78 71 83 108 95 60 53 84 110 136 138 141 151 161 162 180 161 164 158 160 167 168 155 181 180 164 134 120 112 127 124 119 119 74 37 44 44 42 43 29 18 16 9 9 352 18 70 72 79
178 154 135 111 120 122 153 148 181 136 115 104 87 68 62 85 85 89 119 118 84 102 149 202 142 148 159 173 171 135 122 151 162 166 165 165 163 187 174 170 148 133 138 135 127 131 134 130 129 130 63 17 9 13 35 15 21 20 10 36 87 90 79
116 145 148 151 141 160 170 150 151 107 97 113 106 94 67 55 62 79 66 59 128 145 103 108 141 152 154 164 169 154 111 357 153 169 175 171 170 175 165 141 124 113 117 124 124 126 156 159 151 140 131 227 335 18 18 16 7 23 33 60 55 27 31
161 155 157 184 146 122 146 141 104 88 74 92 89 75 60 45 19 12 78 30 13 58 128 131 78 74 127 131 143 156 161 205 263 190 161 127 117 128 129 131 138 142 149 131 130 140 130 143 168 164 161 136 99 61 34 26 29 19 22 30 47 44 30